Regional Weather Roundup
Issued by NWS

Home | Current Version | Previous Version | Graphics & Text | Print | Product List | Glossary On
Versions: 1 2 3 4 5 6 7 8 9 10 11 12 13 14 15 16 17 18 19 20 21 22 23 24 25 26 27 28 29 30 31 32 33 34 35 36 37 38 39 40 41 42 43 44 45 46 47 48 49 50
146
ASUS44 KJAN 181503
RWRMS

MISSISSIPPI HOURLY WEATHER ROUNDUP
NATIONAL WEATHER SERVICE JACKSON MS
900 AM CST THU DEC 18 2014

NOTE: "FAIR: INDICATES FEW OR NO CLOUDS BELOW 12,000 FEET WITH NO
SIGNIFICANT WEATHER AND/OR OBSTRUCTIONS TO VISIBILITY.

MSZ001>002-007>008-010>013-018>021-025>028-034>036-181600-
NORTHWEST MISSISSIPPI

CITY           SKY/WX    TMP DP  RH WIND       PRES   REMARKS
CLARKSDALE     CLOUDY    41  39  93 E5        30.25R
CLEVELAND      CLOUDY    42  41  97 SE6       30.23R
GREENWOOD      LGT RAIN  43  43 100 SE6       30.23F
GREENVILLE     CLOUDY    44  40  85 SE8       30.21F
GRENADA        CLOUDY    41  37  87 E6        30.24S
OLIVE BRANCH   CLOUDY    37  37 100 CALM      30.25R FOG
OXFORD         CLOUDY    37  36  93 E3        30.25S FOG
TUNICA         CLOUDY    39  36  87 NE3       30.26R
$$

MSZ003>006-009-014>017-022>024-029>033-037>039-181600-
NORTHEAST MISSISSIPPI

CITY           SKY/WX    TMP DP  RH WIND       PRES   REMARKS
COLUMBUS AFB   CLOUDY    43  33  68 VRB1      30.26R
CORINTH        CLOUDY    41  36  81 CALM      30.25R
GOLDN TRIANGLE CLOUDY    43  34  70 SE6       30.22S
STARKVILLE     CLOUDY    43  34  70 CALM      30.25R
TUPELO         CLOUDY    41  36  82 NE6       30.25R
$$

MSZ040-058-181600-
CENTRAL MISSISSIPPI

CITY           SKY/WX    TMP DP  RH WIND       PRES   REMARKS
JACKSON INTL   CLOUDY    47  39  74 E7        30.21R
JACKSON HAWKNS CLOUDY    47  38  71 E7        30.21R
MERIDIAN KEY   CLOUDY    45  36  70 E5        30.23R
MERIDIAN NAS   NOT AVBL
RAYMOND        PTSUNNY   46  43  87 NE3       30.21R
VICKSBURG      LGT RAIN  48  42  80 NE6       30.23R
$$

MSZ059>079-181600-
SOUTH MISSISSIPPI

CITY           SKY/WX    TMP DP  RH WIND       PRES   REMARKS
HATTIESBURG    PTSUNNY   47  41  80 CALM      30.23R
MCCOMB         CLOUDY    49  41  74 E9        30.18F
NATCHEZ        CLOUDY    52  41  66 NE5       30.18R
PINE BELT      PTSUNNY   46  37  71 E7        30.24R
$$

MSZ080>082-181600-
COASTAL MISSISSIPPI

CITY           SKY/WX    TMP DP  RH WIND       PRES   REMARKS
BAY ST LOUIS   SUNNY     50  37  62 E6        30.22R
BILOXI         MOSUNNY   51  40  65 E7        30.22S
PASCAGOULA     SUNNY     51  41  68 NE6       30.23S
GULFPORT       SUNNY     49  40  71 E8        30.21S
$$



USA.gov is the U.S. government's official web portal to all federal, state and local government web resources and services.